Regional Weather Roundup
Issued by NWS

Home | Current Version | Previous Version | Text Only | Print | Product List | Glossary Off
Versions: 1 2 3 4 5 6 7 8 9 10 11 12 13 14 15 16 17 18 19 20 21 22 23 24 25 26 27 28 29 30 31 32 33 34 35 36 37 38 39 40 41 42 43 44 45 46 47 48 49 50

000
ASUS43 KMKX 290121
RWRWI

WISCONSIN REGIONAL WEATHER ROUNDUP
NATIONAL WEATHER SERVICE MILWAUKEE/SULLIVAN WI
800 PM CDT WED JUN 28 2017

NOTE: "FAIR" INDICATES FEW OR NO CLOUDS BELOW 12,000 FEET WITH NO
SIGNIFICANT WEATHER AND/OR OBSTRUCTIONS TO VISIBILITY.

WIZ001-002-006>008-014>016-023>028-290200-
NORTHWEST WISCONSIN

CITY           SKY/WX    TMP DP  RH WIND       PRES   REMARKS
SUPERIOR ARPT  NOT AVBL
ASHLAND        RAIN      65  64  97 E3        29.53S FOG
HAYWARD        CLOUDY    68  65  90 S12       29.52S
SIREN          CLOUDY    69  67  94 S3        29.51S
CUMBERLAND     CLOUDY    68  64  88 S8        29.54S
RICE LAKE      CLOUDY    69  67  94 S7        29.55F
CHETEK           N/A     69  67  96 S3        29.55F
LADYSMITH      CLOUDY    69  67  95 S8        29.57F
EAU CLAIRE     MOCLDY    68  66  93 SW8       29.56R
MENOMONIE      MOCLDY    70  69  96 SE3       29.55F
NEW RICHMOND   CLOUDY    73  62  67 W12       29.54R
OSCEOLA        PTCLDY    74  66  76 W6        29.55R
$$

WIZ003>005-009-010-017-018-290200-
NORTH CENTRAL WISCONSIN

CITY           SKY/WX    TMP DP  RH WIND       PRES   REMARKS
MANITOWISH WTR CLOUDY    63  63 100 SE10      29.60S
ARBOR VITAE    CLOUDY    64  63  96 S8        29.60F
WOODRUFF       CLOUDY    64  63  96 S8        29.60F
RHINELANDER    CLOUDY    64  64 100 S8        29.62F
EAGLE RIVER    LGT RAIN  62  62 100 SE7       29.62F
LAND O LAKES   CLOUDY    63  62  97 SE6       29.64F FOG
PHILLIPS       DRIZZLE   65  65 100 S12       29.58S
TOMAHAWK       NOT AVBL
MEDFORD        LGT RAIN  65  64  97 S9        29.59F
MERRILL        LGT RAIN  66  66 100 S3        29.61F
$$

WIZ029-030-035-036-043>047-290200-
CENTRAL WISCONSIN

CITY           SKY/WX    TMP DP  RH WIND       PRES   REMARKS
WAUSAU         LGT RAIN  66  65  96 S10       29.61F FOG
MOSINEE        CLOUDY    66  66 100 S6        29.64F
MARSHFIELD     LGT RAIN  67  64  90 S7        29.60F FOG
STEVENS POINT  CLOUDY    66  66 100 CALM      29.63S
WAUPACA        CLOUDY    68  67  97 CALM      29.61F FOG
WAUTOMA        CLOUDY    66  66 100 CALM      29.63R FOG
WISC RAPIDS    CLOUDY    68  66  93 CALM      29.63F
CAMP DOUGLAS   CLOUDY    68  66  94 S5        29.60F
$$

WIZ011>013-019>022-031-037>040-048>050-290200-
NORTHEAST WISCONSIN

CITY           SKY/WX    TMP DP  RH WIND       PRES   REMARKS
ANTIGO         CLOUDY    64  64 100 S10       29.63F FOG
SHAWANO        CLOUDY    68  64  88 S5        29.62F
OCONTO         CLOUDY    64  62  92 SE7       29.63F
STURGEON BAY     N/A     61  60  97 S20G28    29.66F
GREEN BAY      CLOUDY    66  65  96 SE10      29.64F
MANITOWOC      LGT RAIN  59  57  93 S12G21    29.69F FOG
APPLETON       CLOUDY    66  66 100 S9        29.63F
CLINTONVILLE   CLOUDY    64  63  94 S5        29.62F
OSHKOSH        TSTM      68  65  90 S8        29.62F
$$

WIZ032>034-041-042-053>061-290200-
SOUTHWEST WISCONSIN

CITY           SKY/WX    TMP DP  RH WIND       PRES   REMARKS
LA CROSSE      LGT RAIN  73  67  81 NW3       29.60R
SPARTA         CLOUDY    68  65  90 CALM      29.61R
VIROQUA        CLOUDY    67  65  94 S3        29.62F
BOSCOBEL       CLOUDY    67  64  90 SW5       29.65R
PRAIRIE DU CHI CLOUDY    64  63  95 SE5       29.63R
PLATTEVILLE    CLOUDY    67  67 100 SW13G25   29.69
$$

WIZ056-057-062-063-064-067-068-290200-
SOUTH CENTRAL WISCONSIN

CITY           SKY/WX    TMP DP  RH WIND       PRES   REMARKS
REEDSBURG      CLOUDY    67  67 100 SW6       29.62F
BARABOO/DELLS  CLOUDY    68  65  92 SW7       29.63R
LONE ROCK      CLOUDY    68  63  84 SW8       29.64S
MINERAL POINT  LGT RAIN  64  64 100 SW8       29.68R
MADISON        CLOUDY    65  61  87 SW9       29.67R
MIDDLETON      CLOUDY    67  65  93 SW6       29.68R
WATERTOWN      TSTM      62  62 100 SE12      29.69F
MONROE         NOT AVBL
JANESVILLE     TSTM      64  64 100 SW15G26   29.72R
$$

WIZ051-052-058>065-066-070>072-290200-
SOUTHEAST WISCONSIN

CITY           SKY/WX    TMP DP  RH WIND       PRES   REMARKS
MILWAUKEE      TSTM      67  62  84 NE9       29.75F
WAUKESHA       TSTM      63  61  94 NW22G28   29.85R VSB 1
MILWAUKEE/TIMM TSTM      63  57  82 N3G10     29.77S
RACINE         CLOUDY    73  63  70 S7        29.74F
KENOSHA        CLOUDY    73  63  70 S10       29.73F
FOND DU LAC    TSTM      67  61  81 S20       29.60F
SHEBOYGAN      TSTM      63  63 100 S15       29.67F FOG
WEST BEND      RAIN      63  61  94 SW16G23   29.72F
JUNEAU         TSTM      62  60  93 SE22G33   29.63F
$$

LSZ147-162-290200-
LAKE SUPERIOR

STATION/POSITION TIME  TEMP    WIND        PRES    WAVE
                       AIR SEA DIR/SP/G            HT/PER
                 (UTC) (F)     (DEG/KT/KT) (MB)    (FT/S)
W MID LAKE BUOY  0050   47 39   70/ 14/ 16 1002.0F   1/ 2
DEVILS ISLAND    0100   54      80/ 10/ 12 1000.2F
SAXON HARBOR     0040   67     180/  5/  9  999.7F
$$

LMZ867-665-643>646-290200-
LAKE MICHIGAN

STATION/POSITION TIME  TEMP    WIND        PRES    WAVE
                       AIR SEA DIR/SP/G            HT/PER
                 (UTC) (F)     (DEG/KT/KT) (MB)    (FT/S)
CHAMBERS ISLAND  0040   61     130/  6/ 11 1005.1F
S GREEN BAY BUOY 0100   65     170/ 16/ 19 1003.6F
N MID LAKE BUOY  0050   57 54  170/ 10/ 14 1007.6F   5/ 7
NORTHPORT PIER   0100   60     150/ 11/ 16 1005.4
KEWAUNEE LAKESHO 0048   57     180/ 16/ 20 1005.4F
SHEBOYGAN LAKESH 0100   57     180/ 22/ 23 1004.5F
PORT WASHINGTON  0040   63     220/  7/ 13 1007.5F
ATWATER BUOY     0009   56 51  300/ 10/ 14 1009.7R
MILWAUKEE LAKESH 0100   65     350/  4/  6   N/A
S MID LAKE BUOY  0050   66 60  190/ 14/ 16 1008.0R   4/ 5
KENOSHA   LAKESH 0100   74     200/ 10/ 13 1006.8
$$

TC  - TEMPERATURE IN CELSIUS
VSB - VISIBILITY IN STATUTE MILES
WCI - WIND CHILL INDEX
HX  - HEAT INDEX





USA.gov is the U.S. government's official web portal to all federal, state and local government web resources and services.